Find Starlink 31613

NORAD ID: 59431 Int'l Des: 2024-065 Owner: SPXS Country: US Constellation: starlink operational
LEOCIRCULAR

实时位置

正在加载3D地球...

关于 Starlink 31613

正在加载描述...

即将过境

Passes for default location (London). Set your location on the main map for personalized predictions.

高度历史

Loading altitude history...

两行轨道根数

1 59431U 24065L 26126.90577125 .00002843 00000-0 10802-3 0 9993
2 59431 53.1614 11.1901 0001069 84.4039 275.7083 15.30215529117847
Epoch: May 6, 2026 • Age: 8 hours

当前状态

高度 476.1 km
速度 7.63 km/s
星下点 27.76°N, 151.72°W
发射日期 Apr 7, 2024
运行时间 2 years
类型 internet

技术详情

分类 Payload
质量 730.00 kg
干质量 700.00 kg
总质量 730.00 kg
长度 0.30 m
直径 4.10 m
跨度 29.00 m
形状 Box + pan
制造商 SPXS
平台类型 Starlink V2M
阶段状态 In Orbit
所有者/国家 SPXS/US

Most Searched